Date String (YYYY-MM-DD hh:mm:ss) UTC,Instrument flags,Ambient pressure (hPa),Sample flow (lpm),Bypass flow (lpm),Sample temperature (°C),Ambient temperature (°C),ASC tube jacket temperature (°C),LED temperature (°C),Box temperature (°C),Sample RH (%),Span deviation,Mass concentration (μg/m³),Mass concentration (μg/m³),Mass concentration (μg/m³)
DateTimeUTC,F1_M11,P_M11,Q1_M11,Q2_M11,T1_M11,T2_M11,T3_M11,T4_M11,T5_M11,U1_M11,ZSPAN_M11,X0_M11,X2_M11,X1_M11
2022-07-14 10:00:00,,0828.4,4.99,0.00,29.5,27.6,00.0,38.3,31.3,20.1,0000.0,0006.63,0002.73,0002.29
2022-07-14 10:01:00,,0828.4,5.01,0.00,29.5,27.7,00.0,38.3,31.3,20.1,0000.0,0006.60,0002.72,0002.28
2022-07-14 10:02:00,,0828.4,4.99,0.00,29.5,27.9,00.0,38.3,31.3,20.0,0000.0,0006.56,0002.72,0002.29
2022-07-14 10:03:00,,0828.4,4.99,0.00,29.5,28.0,00.0,38.3,31.4,20.0,0000.0,0006.54,0002.70,0002.31
2022-07-14 10:04:00,,0828.4,5.02,0.00,29.5,28.2,00.0,38.3,31.4,20.0,0000.0,0006.53,0002.70,0002.31
2022-07-14 10:05:00,,0828.4,5.00,0.00,29.6,28.3,00.0,38.3,31.5,19.9,0000.0,0006.68,0002.72,0002.30
2022-07-14 10:06:00,,0828.4,5.01,0.00,29.6,28.4,00.0,38.3,31.5,19.9,0000.0,0005.87,0002.75,0002.30
2022-07-14 10:07:00,,0828.4,5.00,0.00,29.6,28.5,00.0,38.3,31.6,19.9,0000.0,0004.76,0002.75,0002.31
2022-07-14 10:08:00,,0828.4,5.00,0.00,29.7,28.6,00.0,38.4,31.6,20.0,0000.0,0004.28,0002.76,0002.32
2022-07-14 10:09:00,,0828.4,5.00,0.00,29.7,28.7,00.0,38.4,31.7,20.0,0000.0,0004.44,0002.78,0002.34
2022-07-14 10:10:00,,0828.5,5.00,0.00,29.7,28.7,00.0,38.4,31.7,19.9,0000.0,0004.79,0002.83,0002.35
2022-07-14 10:11:00,,0828.5,4.99,0.00,29.8,28.8,00.0,38.4,31.7,20.0,0000.0,0004.85,0002.85,0002.36
2022-07-14 10:12:00,,0828.5,5.01,0.00,29.8,28.8,00.0,38.5,31.8,20.0,0000.0,0004.84,0002.86,0002.37
2022-07-14 10:13:00,,0828.5,4.99,0.00,29.8,28.4,00.0,38.4,31.7,19.6,0000.0,0004.94,0002.90,0002.37
2022-07-14 10:14:00,,0828.5,5.00,0.00,29.8,27.8,00.0,38.4,31.6,19.6,0000.0,0004.88,0002.92,0002.37
2022-07-14 10:15:00,,0828.5,5.00,0.00,29.7,27.7,00.0,38.4,31.5,19.7,0000.0,0004.90,0002.92,0002.37
2022-07-14 10:16:00,,0828.4,5.00,0.00,29.7,27.7,00.0,38.4,31.4,19.7,0000.0,0004.79,0002.93,0002.38
2022-07-14 10:17:00,,0828.5,5.00,0.00,29.7,27.8,00.0,38.4,31.4,19.8,0000.0,0004.61,0002.90,0002.39
2022-07-14 10:18:00,,0828.4,5.01,0.00,29.7,27.9,00.0,38.4,31.5,19.8,0000.0,0004.62,0002.91,0002.40
2022-07-14 10:19:00,,0828.4,4.99,0.00,29.7,28.1,00.0,38.4,31.5,19.9,0000.0,0004.50,0002.90,0002.39
2022-07-14 10:20:00,,0828.4,5.00,0.00,29.7,28.2,00.0,38.4,31.6,19.9,0000.0,0004.30,0002.87,0002.38
2022-07-14 10:21:00,,0828.5,4.99,0.00,29.7,28.3,00.0,38.4,31.6,20.0,0000.0,0003.95,0002.84,0002.38
2022-07-14 10:22:00,,0828.5,5.01,0.00,29.7,28.4,00.0,38.4,31.6,20.0,0000.0,0003.79,0002.83,0002.39
2022-07-14 10:23:00,,0828.4,5.00,0.00,29.7,28.5,00.0,38.5,31.7,20.0,0000.0,0003.82,0002.85,0002.41
2022-07-14 10:24:00,,0828.4,5.00,0.00,29.8,28.6,00.0,38.5,31.7,20.0,0000.0,0003.88,0002.87,0002.43
2022-07-14 10:25:00,,0828.4,5.00,0.00,29.8,28.7,00.0,38.5,31.7,20.0,0000.0,0003.98,0002.92,0002.46
2022-07-14 10:26:00,,0828.4,5.00,0.00,29.8,28.5,00.0,38.5,31.7,19.9,0000.0,0004.00,0002.97,0002.48
2022-07-14 10:27:00,,0828.4,4.99,0.00,29.8,27.5,00.0,38.4,31.6,20.0,0000.0,0004.05,0002.95,0002.49
2022-07-14 10:28:00,,0828.4,5.00,0.00,29.7,27.0,00.0,38.4,31.4,20.0,0000.0,0004.06,0002.95,0002.50
2022-07-14 10:29:00,,0828.4,5.01,0.00,29.6,27.0,00.0,38.4,31.3,20.1,0000.0,0004.03,0002.97,0002.52
2022-07-14 10:30:00,,0828.5,5.00,0.00,29.5,27.1,00.0,38.3,31.2,20.1,0000.0,0004.15,0003.04,0002.53
2022-07-14 10:31:00,,0828.5,5.00,0.00,29.5,27.2,00.0,38.3,31.2,20.6,0000.0,0004.25,0003.10,0002.54
2022-07-14 10:32:00,,0828.5,5.01,0.00,29.5,27.4,00.0,38.3,31.2,20.5,0000.0,0004.33,0003.10,0002.55
2022-07-14 10:33:00,,0828.5,4.99,0.00,29.5,27.6,00.0,38.3,31.3,20.4,0000.0,0004.33,0003.10,0002.54
2022-07-14 10:34:00,,0828.5,5.01,0.00,29.5,27.8,00.0,38.3,31.3,20.4,0000.0,0004.25,0003.08,0002.53
2022-07-14 10:35:00,,0828.4,4.99,0.00,29.5,27.9,00.0,38.3,31.4,20.5,0000.0,0004.19,0003.06,0002.53
2022-07-14 10:36:00,,0828.5,5.00,0.00,29.5,28.1,00.0,38.3,31.4,20.4,0000.0,0004.18,0003.05,0002.52
2022-07-14 10:37:00,,0828.5,5.01,0.00,29.5,28.2,00.0,38.3,31.4,20.3,0000.0,0004.08,0003.00,0002.49
2022-07-14 10:38:00,,0828.7,4.99,0.00,29.6,28.3,00.0,38.3,31.5,20.2,0000.0,0003.96,0002.98,0002.49
2022-07-14 10:39:00,,0828.8,5.00,0.00,29.6,28.4,00.0,38.4,31.5,20.1,0000.0,0003.99,0003.00,0002.51
2022-07-14 10:40:00,,0828.8,5.02,0.00,29.6,28.5,00.0,38.4,31.6,20.0,0000.0,0004.01,0002.98,0002.50
2022-07-14 10:41:00,,0828.9,5.00,0.00,29.7,28.6,00.0,38.4,31.6,19.9,0000.0,0004.07,0002.97,0002.50
2022-07-14 10:42:00,,0829.0,4.99,0.00,29.7,28.7,00.0,38.4,31.7,19.9,0000.0,0004.24,0003.02,0002.52
2022-07-14 10:43:00,,0829.0,4.99,0.00,29.7,28.8,00.0,38.4,31.7,19.9,0000.0,0004.32,0003.03,0002.52
2022-07-14 10:44:00,,0828.9,5.00,0.00,29.8,28.8,00.0,38.5,31.8,19.9,0000.0,0004.46,0003.05,0002.53
2022-07-14 10:45:00,,0829.0,5.00,0.00,29.8,28.7,00.0,38.5,31.8,19.9,0000.0,0004.60,0003.10,0002.56
2022-07-14 10:46:00,,0829.2,5.00,0.00,29.8,27.8,00.0,38.4,31.6,19.9,0000.0,0006.00,0003.14,0002.61
2022-07-14 10:47:00,,0829.1,5.01,0.00,29.7,27.1,00.0,38.3,31.5,19.9,0000.0,0006.51,0003.19,0002.67
2022-07-14 10:48:00,,0829.0,5.00,0.00,29.6,27.0,00.0,38.3,31.4,20.4,0000.0,0007.17,0003.26,0002.75
2022-07-14 10:49:00,,0829.0,4.99,0.00,29.6,27.1,00.0,38.3,31.3,20.2,0000.0,0007.67,0003.33,0002.82
2022-07-14 10:50:00,,0829.1,5.00,0.00,29.5,27.2,00.0,38.3,31.2,20.3,0000.0,0008.24,0003.38,0002.88
2022-07-14 10:51:00,,0829.1,5.00,0.00,29.5,27.4,00.0,38.3,31.2,20.4,0000.0,0008.69,0003.42,0002.95
2022-07-14 10:52:00,,0829.0,5.00,0.00,29.5,27.6,00.0,38.3,31.3,20.4,0000.0,0008.67,0003.45,0003.02
2022-07-14 10:53:00,,0829.0,5.01,0.00,29.5,27.8,00.0,38.3,31.3,20.3,0000.0,0008.76,0003.46,0003.09
2022-07-14 10:54:00,,0828.7,5.00,0.00,29.5,27.9,00.0,38.3,31.3,20.3,0000.0,0009.34,0003.48,0003.13
2022-07-14 10:55:00,,0828.7,5.00,0.00,29.5,28.1,00.0,38.3,31.4,20.3,0000.0,0009.52,0003.52,0003.17
2022-07-14 10:56:00,,0828.8,5.00,0.00,29.5,28.2,00.0,38.3,31.4,20.3,0000.0,0009.52,0003.54,0003.19
2022-07-14 10:57:00,,0829.1,5.01,0.00,29.6,28.3,00.0,38.3,31.5,20.5,0000.0,0008.95,0003.55,0003.20
2022-07-14 10:58:00,,0829.1,5.00,0.00,29.6,28.4,00.0,38.4,31.5,20.5,0000.0,0008.61,0003.57,0003.21
2022-07-14 10:59:00,,0829.1,5.00,0.00,29.6,28.5,00.0,38.4,31.6,20.3,0000.0,0008.44,0003.58,0003.22
